Location: Borger
(52.9222°N, 6.7926°E)
Time: 16:10:50
(UTC+00:00)

Cosmos 1452 Rocket - Pass Details

Date: 15 May 2026
Orbit: 763 x 770 km, 74.1° (Epoch: 10 June)

Event Time Altitude Azimuth Distance (km) Brightness Sun altitude
Rises 20:04:01 0° 218° (SW) 3,218 6.7 -5.5°
Reaches altitude 10° 20:06:25 10° 222° (SW) 2,296 6.0 -5.8°
Maximum altitude 20:11:33 57° 301° (WNW) 901 4.3 -6.4°
Drops below altitude 10° 20:16:43 10° 20° (NNE) 2,313 6.3 -6.9°
Sets 20:19:09 0° 25° (NNE) 3,244 7.0 -7.2°
